Terminal Aerodrome Forecast
Issued by NWS Medford, OR

Home | Current Version | Previous Version | Text Only | Print | Product List | Glossary On
Versions: 1 2 3 4 5 6 7 8 9 10 11 12 13 14 15 16 17 18 19 20 21 22 23
000
FTUS46 KMFR 302300
TAFMFR
TAF
KMFR 302339Z 3100/3124 02003KT P6SM SCT070 BKN100
     FM311400 00000KT 5SM RA BR OVC020
     FM311700 29005KT P6SM -SHRA BKN035 OVC060=

USA.gov is the U.S. government's official web portal to all federal, state and local government web resources and services.